When you browse on this site, cookies collect data to enhance your experience and personalize the content and advertising you see.
Visit our Privacy Policy to learn more. By continuing to use the site, you agree to this use of cookies and data.
  • în România
  • Lista ţărilor
  • Pe 7 zile
  • Temperatura apei
  • Meteo pe hartă
  • Widget-uri
  • user-avatar
    Intrare

    Meteo pe oră la Zayare

    Astăzi, 26 August, Luni

    Timp Temperatura Precipitaţii Vânt Presiune Umiditate
    00:00 +13°C° 0 mm 4 m/s 757 mmHg 83%
    01:00 +13°C° 0 mm 4 m/s 757 mmHg 84%
    02:00 +12°C° 0 mm 4 m/s 758 mmHg 86%
    03:00 +12°C° 0 mm 4 m/s 758 mmHg 89%
    04:00 +12°C° 0 mm 4 m/s 759 mmHg 88%
    05:00 +12°C° 0 mm 4 m/s 759 mmHg 87%
    06:00 +12°C° 0 mm 4 m/s 759 mmHg 86%
    07:00 +13°C° 0 mm 4 m/s 760 mmHg 79%
    08:00 +14°C° 0 mm 5 m/s 760 mmHg 72%
    09:00 +16°C° 0 mm 5 m/s 760 mmHg 65%
    10:00 +17°C° 0 mm 5 m/s 760 mmHg 60%
    11:00 +19°C° 0 mm 4 m/s 760 mmHg 54%
    12:00 +20°C° 0 mm 4 m/s 760 mmHg 49%
    13:00 +20°C° 0 mm 4 m/s 760 mmHg 49%
    14:00 +20°C° 0 mm 4 m/s 760 mmHg 49%
    15:00 +20°C° 0 mm 4 m/s 760 mmHg 49%
    16:00 +19°C° 0 mm 3 m/s 760 mmHg 54%
    17:00 +18°C° 0 mm 3 m/s 760 mmHg 59%
    18:00 +17°C° 0 mm 2 m/s 759 mmHg 64%
    19:00 +16°C° 0 mm 2 m/s 759 mmHg 67%
    20:00 +14°C° 0 mm 2 m/s 759 mmHg 70%
    21:00 +13°C° 0 mm 1 m/s 759 mmHg 73%
    22:00 +13°C° 0 mm 1 m/s 759 mmHg 73%
    23:00 +13°C° 0 mm 1 m/s 759 mmHg 72%

    Mâine, 27 August, Marţi

    Timp Temperatura Precipitaţii Vânt Presiune Umiditate
    00:00 +13°C° 0 mm 1 m/s 758 mmHg 72%
    01:00 +13°C° 0 mm 2 m/s 758 mmHg 73%
    02:00 +12°C° 0 mm 2 m/s 758 mmHg 75%
    03:00 +12°C° 0 mm 2 m/s 757 mmHg 76%
    04:00 +13°C° 0 mm 2 m/s 757 mmHg 74%
    05:00 +12°C° 0 mm 3 m/s 756 mmHg 72%
    06:00 +12°C° 0 mm 3 m/s 756 mmHg 70%
    07:00 +14°C° 0 mm 4 m/s 755 mmHg 67%
    08:00 +15°C° 0 mm 4 m/s 755 mmHg 64%
    09:00 +16°C° 0 mm 5 m/s 754 mmHg 60%
    10:00 +17°C° 0.1 mm 5 m/s 753 mmHg 62%
    11:00 +17°C° 0.1 mm 6 m/s 753 mmHg 63%
    12:00 +17°C° 0.1 mm 6 m/s 752 mmHg 64%
    13:00 +16°C° 0.2 mm 6 m/s 752 mmHg 70%
    14:00 +15°C° 0.2 mm 6 m/s 751 mmHg 75%
    15:00 +14°C° 0.2 mm 5 m/s 751 mmHg 81%
    16:00 +14°C° 0.8 mm 5 m/s 750 mmHg 85%
    17:00 +14°C° 0.8 mm 5 m/s 750 mmHg 88%
    18:00 +13°C° 0.8 mm 4 m/s 749 mmHg 92%
    19:00 +13°C° 0.4 mm 3 m/s 749 mmHg 92%
    20:00 +13°C° 0.4 mm 3 m/s 748 mmHg 93%
    21:00 +14°C° 0.4 mm 2 m/s 748 mmHg 93%
    22:00 +12°C° 0.1 mm 3 m/s 748 mmHg 93%
    23:00 +12°C° 0.1 mm 3 m/s 747 mmHg 92%

    Poimâine, 28 August, Miercuri

    Timp Temperatura Precipitaţii Vânt Presiune Umiditate
    00:00 +12°C° 0.1 mm 3 m/s 747 mmHg 92%
    01:00 +12°C° 0.3 mm 4 m/s 747 mmHg 92%
    02:00 +12°C° 0.3 mm 4 m/s 747 mmHg 92%
    03:00 +11°C° 0.3 mm 4 m/s 747 mmHg 93%
    04:00 +10°C° 1.1 mm 5 m/s 747 mmHg 91%
    05:00 +10°C° 1.1 mm 6 m/s 747 mmHg 90%
    06:00 +10°C° 1.1 mm 6 m/s 747 mmHg 89%
    07:00 +11°C° 0.2 mm 7 m/s 747 mmHg 84%
    08:00 +11°C° 0.2 mm 7 m/s 747 mmHg 79%
    09:00 +11°C° 0.2 mm 7 m/s 748 mmHg 74%
    10:00 +11°C° 0 mm 7 m/s 748 mmHg 72%
    11:00 +12°C° 0 mm 8 m/s 748 mmHg 70%
    12:00 +12°C° 0 mm 8 m/s 748 mmHg 68%
    13:00 +12°C° 0 mm 8 m/s 748 mmHg 68%
    14:00 +12°C° 0 mm 7 m/s 748 mmHg 69%
    15:00 +12°C° 0 mm 7 m/s 749 mmHg 69%
    16:00 +11°C° 0.1 mm 7 m/s 749 mmHg 71%
    17:00 +11°C° 0.1 mm 8 m/s 749 mmHg 73%
    18:00 +10°C° 0.1 mm 8 m/s 750 mmHg 75%
    19:00 +9°C° 0 mm 8 m/s 750 mmHg 76%
    20:00 +9°C° 0 mm 8 m/s 750 mmHg 77%
    21:00 +9°C° 0 mm 8 m/s 750 mmHg 78%
    22:00 +7°C° 0 mm 8 m/s 750 mmHg 78%
    23:00 +7°C° 0 mm 8 m/s 750 mmHg 77%

    29 August, Joi

    Timp Temperatura Precipitaţii Vânt Presiune Umiditate
    00:00 +8°C° 0 mm 7 m/s 750 mmHg 77%
    01:00 +7°C° 0 mm 8 m/s 750 mmHg 77%
    02:00 +7°C° 0 mm 8 m/s 751 mmHg 78%
    03:00 +7°C° 0 mm 8 m/s 751 mmHg 78%
    04:00 +7°C° 0 mm 8 m/s 751 mmHg 77%
    05:00 +7°C° 0 mm 8 m/s 751 mmHg 76%
    06:00 +7°C° 0 mm 8 m/s 752 mmHg 74%
    07:00 +7°C° 0 mm 8 m/s 752 mmHg 73%
    08:00 +7°C° 0 mm 8 m/s 752 mmHg 72%
    09:00 +9°C° 0 mm 8 m/s 752 mmHg 70%
    10:00 +9°C° 0 mm 8 m/s 753 mmHg 69%
    11:00 +10°C° 0 mm 8 m/s 753 mmHg 68%
    12:00 +10°C° 0 mm 8 m/s 754 mmHg 67%
    13:00 +11°C° 0 mm 8 m/s 754 mmHg 66%
    14:00 +11°C° 0 mm 8 m/s 754 mmHg 65%
    15:00 +11°C° 0 mm 7 m/s 754 mmHg 64%
    16:00 +11°C° 0 mm 7 m/s 754 mmHg 65%
    17:00 +11°C° 0 mm 6 m/s 754 mmHg 65%
    18:00 +12°C° 0 mm 5 m/s 755 mmHg 66%
    19:00 +10°C° 0 mm 5 m/s 755 mmHg 67%
    20:00 +10°C° 0 mm 5 m/s 755 mmHg 68%
    21:00 +11°C° 0 mm 4 m/s 755 mmHg 69%
    22:00 +10°C° 0 mm 4 m/s 755 mmHg 72%
    23:00 +8°C° 0 mm 4 m/s 755 mmHg 75%

    30 August, Vineri

    Timp Temperatura Precipitaţii Vânt Presiune Umiditate
    00:00 +7°C° 0 mm 4 m/s 755 mmHg 77%
    01:00 +7°C° 0 mm 3 m/s 754 mmHg 79%
    02:00 +7°C° 0 mm 3 m/s 754 mmHg 81%
    03:00 +5°C° 0 mm 3 m/s 754 mmHg 82%
    04:00 +7°C° 0 mm 3 m/s 754 mmHg 81%
    05:00 +7°C° 0 mm 3 m/s 754 mmHg 80%
    06:00 +7°C° 0 mm 3 m/s 754 mmHg 79%
    07:00 +8°C° 0 mm 3 m/s 754 mmHg 73%
    08:00 +10°C° 0 mm 3 m/s 754 mmHg 66%
    09:00 +11°C° 0 mm 4 m/s 754 mmHg 60%
    10:00 +12°C° 0 mm 4 m/s 754 mmHg 57%
    11:00 +13°C° 0 mm 4 m/s 754 mmHg 54%
    12:00 +13°C° 0 mm 4 m/s 754 mmHg 50%
    13:00 +13°C° 0.2 mm 5 m/s 754 mmHg 55%
    14:00 +13°C° 0.2 mm 5 m/s 754 mmHg 60%
    15:00 +13°C° 0.2 mm 6 m/s 754 mmHg 64%
    16:00 +12°C° 0.2 mm 5 m/s 754 mmHg 69%
    17:00 +11°C° 0.2 mm 4 m/s 754 mmHg 73%
    18:00 +10°C° 0.2 mm 4 m/s 754 mmHg 78%
    19:00 +10°C° 0 mm 4 m/s 755 mmHg 79%
    20:00 +8°C° 0 mm 4 m/s 755 mmHg 81%
    21:00 +7°C° 0 mm 4 m/s 755 mmHg 83%
    22:00 +8°C° 0 mm 3 m/s 755 mmHg 83%
    23:00 +8°C° 0 mm 3 m/s 755 mmHg 82%

    31 August, Sâmbătă

    Timp Temperatura Precipitaţii Vânt Presiune Umiditate
    00:00 +8°C° 0 mm 3 m/s 755 mmHg 81%
    01:00 +7°C° 0 mm 3 m/s 755 mmHg 83%
    02:00 +7°C° 0 mm 3 m/s 755 mmHg 85%
    03:00 +5°C° 0 mm 3 m/s 755 mmHg 87%
    04:00 +5°C° 0 mm 3 m/s 755 mmHg 85%
    05:00 +7°C° 0 mm 3 m/s 755 mmHg 83%
    06:00 +7°C° 0 mm 3 m/s 755 mmHg 81%
    07:00 +7°C° 0 mm 4 m/s 755 mmHg 76%
    08:00 +10°C° 0 mm 4 m/s 755 mmHg 70%
    09:00 +11°C° 0 mm 4 m/s 755 mmHg 64%
    10:00 +10°C° 0 mm 5 m/s 755 mmHg 62%
    11:00 +12°C° 0 mm 5 m/s 755 mmHg 59%
    12:00 +12°C° 0 mm 5 m/s 755 mmHg 57%
    13:00 +12°C° 0 mm 5 m/s 755 mmHg 56%
    14:00 +10°C° 0 mm 5 m/s 755 mmHg 55%
    15:00 +10°C° 0 mm 5 m/s 755 mmHg 54%
    16:00 +11°C° 0 mm 4 m/s 755 mmHg 57%
    17:00 +10°C° 0 mm 3 m/s 755 mmHg 61%
    18:00 +10°C° 0 mm 3 m/s 755 mmHg 64%
    19:00 +9°C° 0 mm 3 m/s 755 mmHg 67%
    20:00 +8°C° 0 mm 3 m/s 755 mmHg 69%
    21:00 +7°C° 0 mm 3 m/s 755 mmHg 72%
    22:00 +7°C° 0 mm 3 m/s 755 mmHg 72%
    23:00 +7°C° 0 mm 3 m/s 755 mmHg 72%
    Arată mai mult